Regional Weather Roundup
Issued by NWS Kansas City/Pleasant Hill, MO

Home | Current Version | Previous Version | Text Only | Print | Product List | Glossary On
Versions: 1 2 3 4 5 6 7 8 9 10 11 12 13 14 15 16 17 18 19 20 21 22 23 24 25 26 27 28 29 30 31 32 33 34 35 36 37 38 39 40 41 42 43 44 45 46 47 48 49 50
000
ASUS43 KEAX 200310
RWREAX

WEATHER ROUNDUP FOR EASTERN KANSAS AND NORTHWEST MISSOURI
NATIONAL WEATHER SERVICE KANSAS CITY/PLEASANT HILL MO
900 PM CST THU JAN 19 2017

KSZ040-057-103>105-MOZ028-029-037-043-200400-
...KANSAS CITY METROPOLITAN AREA...

CITY           SKY/WX    TMP DP  RH WIND       PRES   REMARKS
K.C. INTL      LGT RAIN  46  43  89 CALM      29.64S
K.C. DOWNTOWN  CLOUDY    48  46  93 CALM      29.64S
LEES SUMMIT    CLOUDY    47  46  97 CALM      29.64S
OLATHE - IXD   CLOUDY    47  45  93 CALM      29.64S
OLATHE - OJC   CLOUDY    45  45 100 E3        29.63S FOG
LAWRENCE       CLOUDY    45  45 100 CALM      29.64S FOG

$$

MOZ001>008-011>017-020>025-030>033-038>040-044>046-053-054-200400-
...NORTHERN AND CENTRAL MISSOURI...

CITY           SKY/WX    TMP DP  RH WIND       PRES   REMARKS
ST. JOSEPH     CLOUDY    44  44 100 N3        29.65F FOG
MOSBY          CLOUDY    45  45 100 CALM      29.65R FOG
WARRENSBURG    FOG       46  46 100 CALM      29.63F VSB 1/2
WHITEMAN AFB   FOG       48  48 100 E5        29.62F VSB 1
CLINTON        FOG       48  48 100 E5        29.63F VSB 3/4
SEDALIA        FOG       48  47  96 E5        29.64F VSB 3/4
WARSAW         NOT AVBL
CHILLICOTHE      N/A     45  45 100 E3        29.66F
KIRKSVILLE     FOG       42  42 100 E5        29.66F VSB 1/4

$$

MOZ041-047>049-056>058-063>065-088>090-097-200400-
...EASTERN AND SOUTHERN MISSOURI...

CITY           SKY/WX    TMP DP  RH WIND       PRES   REMARKS
ST. LOUIS INTL FOG       48  46  93 S7        29.68R VSB 1/4
SPIRIT OF STL  CLOUDY    47  47 100 S3        29.67R THUNDER FOG
COLUMBIA       CLOUDY    47  47 100 CALM      29.64F FOG
JEFFERSON CITY CLOUDY    47  46  97 E3        29.64F
ROLLA          FOG       48  48 100 E10       29.63F VSB 1/4
OSAGE BEACH    FOG       48  48 100 CALM      29.64S VSB 3/4
SPRINGFIELD    FOG       50  50 100 SE10      29.60F VSB 3/4
BRANSON        FOG       45  45 100 SE6       29.63S VSB 1
JOPLIN         CLOUDY    50  48  93 CALM      29.64R
WEST PLAINS    FOG       49  48  97 SE5       29.66F VSB 1/2

$$

IAZ060-094-KSZ022-034>040-054-083-096-NEZ052-066-093-200400-
...KANSAS...SOUTHEAST NEBRASKA AND IOWA...

CITY           SKY/WX    TMP DP  RH WIND       PRES   REMARKS
TOPEKA         LGT RAIN  45  43  93 CALM      29.64R FOG
MANHATTAN      FOG       45  44  97 CALM      29.62F VSB 1/2
EMPORIA        FOG       45  44  97 E6        29.61F VSB 3/4
CHANUTE        CLOUDY    48  45  89 E3        29.62S
WICHITA        MOCLDY    46  44  93 E8        29.59S
OMAHA          LGT RAIN  39  36  89 CALM      29.66F VSB 1/2
LINCOLN        FOG       41  40  96 E9        29.65F VSB 1
FALLS CITY     FOG       43  43 100 CALM      29.65R VSB 1/4
LAMONI         FOG       40  40 100 NE5       29.65F VSB 1/4
DES MOINES     DRZL/FOG  38  37  97 CALM      29.69S VSB 1/2

$$




USA.gov is the U.S. government's official web portal to all federal, state and local government web resources and services.